Regional Weather Roundup
Issued by NWS Boston, MA

Current Version | Previous Version | Text Only | Print | Product List | Glossary On
Versions: 1 2 3 4 5 6 7 8 9 10 11 12 13 14 15 16 17 18 19 20 21 22 23 24 25 26 27 28 29 30 31 32 33 34 35 36 37 38 39 40 41 42 43 44 45 46 47 48 49 50
945 ASUS41 KBOX 221210 RWRBOX REGIONAL WEATHER ROUNDUP NATIONAL WEATHER SERVICE TAUNTON MA 800 AM EDT TUE AUG 22 2017 NOTE: "FAIR" INDICATES FEW OR NO CLOUDS BELOW 12,000 FEET WITH NO SIGNIFICANT WEATHER AND/OR OBSTRUCTIONS TO VISIBILITY. MAZALL-221300- EASTERN MASSACHUSETTS CITY SKY/WX TMP DP RH WIND PRES REMARKS BOSTON NOT AVBL BEVERLY SUNNY 74 69 85 SW8 29.99F LAWRENCE SUNNY 73 67 81 S5 30.02S BEDFORD SUNNY 73 67 81 SW7 29.99F BLUE HILL N/A 69 67 93 S9 30.03S NORWOOD PTSUNNY 73 71 93 S3 30.01S MARSHFIELD SUNNY 75 72 88 SW9G16 30.01S PLYMOUTH CLOUDY 71 69 93 S8 30.03S FOG TAUNTON CLOUDY 74 70 87 SW8 30.02S NEW BEDFORD CLOUDY 73 71 93 SW12 30.02F FOG $$ MAZALL-221300- CAPE COD AND THE ISLANDS CITY SKY/WX TMP DP RH WIND PRES REMARKS FALMOUTH CLOUDY 73 73 100 SW9 30.05F HYANNIS CLOUDY 73 72 96 SW9 30.03F CHATHAM CLOUDY 73 72 96 SW8 30.06F PROVINCETOWN CLOUDY 72 70 93 S14 30.03F FOG NANTUCKET SUNNY 70 70 100 SW12 30.07S FOG MARTHAS VNYRD CLOUDY 73 71 93 SW10 30.05F $$ MAZALL-221300- CENTRAL AND WESTERN MASSACHUSETTS CITY SKY/WX TMP DP RH WIND PRES REMARKS WORCESTER FOG 67 65 93 SW9 30.04F VSB 1/4 6HR MIN TEMP: 66; 6HR MAX TEMP: 68; FITCHBURG SUNNY 73 67 81 CALM 30.02S ORANGE CLOUDY 65 64 97 CALM 30.02S SPRINGFIELD CLOUDY 71 69 92 S7 30.00F FOG WESTFIELD CLOUDY 70 69 97 CALM 30.01F FOG NORTH ADAMS MOSUNNY 68 66 93 CALM 30.01F PITTSFIELD MOSUNNY 66 64 93 CALM 30.03S FOG $$ RIZALL-221300- RHODE ISLAND CITY SKY/WX TMP DP RH WIND PRES REMARKS PROVIDENCE CLOUDY 73 72 96 SW8 30.04S 6HR MIN TEMP: 69; 6HR MAX TEMP: 73; NEWPORT CLOUDY 71 71 100 S8 30.04S FOG BLOCK ISLAND MOSUNNY 73 71 93 SW12 30.05F WESTERLY CLOUDY 74 71 91 SW8 30.05S $$ CTZALL-221300- CONNECTICUT CITY SKY/WX TMP DP RH WIND PRES REMARKS BRADLEY INTL CLOUDY 72 70 93 SW6 30.02S FOG 6HR MIN TEMP: 69; 6HR MAX TEMP: 72; HARTFORD CLOUDY 74 71 91 SW7 30.01S BRIDGEPORT CLOUDY 76 72 87 SW9 30.02F DANBURY PTSUNNY 74 71 91 SE5 30.04F FOG GROTON CLOUDY 73 71 93 CALM 30.03S FOG NEW HAVEN PTSUNNY 76 72 87 SW7 30.03S FOG CHESTER CLOUDY 73 73 100 SW8 30.04F FOG MERIDEN CLOUDY 73 71 93 S3 30.03S WILLIMANTIC CLOUDY 70 68 93 CALM 30.03F OXFORD FOG 70 70 100 VRB3 30.05F VSB 1/4 $$ MEZ002-015-021-024-NHZ003-005-008-011-012-014-VTZ005-008-221300- NORTHERN NEW ENGLAND CITY SKY/WX TMP DP RH WIND PRES REMARKS PORTLAND ME MOSUNNY 69 63 81 CALM 29.98F 6HR MIN TEMP: 61; 6HR MAX TEMP: 69; BANGOR ME SUNNY 69 62 78 CALM 29.97F CONCORD NH SUNNY 66 64 93 CALM 30.00F MANCHESTER NH MOSUNNY 70 64 81 CALM 29.98F NASHUA NH SUNNY 72 69 90 SE3 30.00F PORTSMOUTH NH MOSUNNY 70 65 85 CALM 29.98S JAFFREY NH CLOUDY 67 67 100 S5 30.04S FOG KEENE NH N/A N/A N/A N/A MISG N/A BURLINGTON VT MOSUNNY 74 67 78 S10 29.93F MT. WASHINGTON MOSUNNY 54 45 71 SW16 N/A $$ NYZ052-076-221300- EASTERN NEW YORK CITY SKY/WX TMP DP RH WIND PRES REMARKS ALBANY MOSUNNY 73 68 84 S9 29.98F 6HR MIN TEMP: 68; 6HR MAX TEMP: 73; NEW YORK CITY PTSUNNY 77 73 87 SW6 30.02S 6HR MIN TEMP: 75; 6HR MAX TEMP: 78; $$ ANZALL-221300- MARINE OBSERVATIONS STATION/POSITION TIME TEMP WIND PRES VSBY WAVE AIR SEA DIR/SP/G HT/PER (UTC) (F) (DEG/KT/KT) (MB) (MI) (FT/S) BOSTON BUOY 1150 69 67 190/ 6/ 8 1015.9F 1 BUZZARDS BAY 1100 71 210/ 16/ 16 1017.5F NANTUCKET SOUND 1050 71 70 230/ 12/ 14 1017.9 1/ 2 MASS BAY-STELLWA 1104 68 65 200/ 10/ 10 1015.6S 1 ISLE OF SHOALS 1100 69 210/ 8/ 9 1015.4S S OF BLOCK IS NOT AVBL $$ ......................KEY......................... SKY/WX - SKY CONDITION/PRESENT WEATHER TMP - TEMPERATURE IN FAHRENHEIT DWPT - DEWPOINT IN FAHRENHEIT RH - RELATIVE HUMIDITY IN PERCENT WIND - DIRECTION AND SPEED IN MPH PRES - MEAN SEA LEVEL PRESSURE IN INCHES OF HG WCI - WIND CHILL INDEX VSB - VISIBILITY IN MILES HX - HEAT INDEX TC - TEMPERATURE IN CELSIUS VRB - VARIABLE WIND DIRECTION N/A - NOT AVAILABLE

USA.gov is the U.S. government's official web portal to all federal, state and local government web resources and services.